Simultaneous Nadir Overpasses (SNOs) Predictions

Prediction of SNOs between AQUA and METOP-A Satellite Orbit:

Table of predicted SNOs for the next 14.0 days since TLE Epoch: 7/24/2021
Index Date (AQUA) Time (AQUA) Lat,Lon (AQUA) SZA (AQUA ) Date (METOP-A) Time (METOP-A) Lat,Lon (METOP-A) SZA (METOP-A ) Distance(km) Time Diff (sec)
1 07/26/2021 01:13:00 77.58, 144.92 58.80 07/26/2021 01:12:18 77.58, 145.00 58.81 1.96 42
2 07/26/2021 02:02:26 -77.60, -47.51 121.17 07/26/2021 02:02:59 -77.59, -47.61 121.18 2.72 33
3 07/28/2021 20:47:15 77.60,-148.71 59.47 07/28/2021 20:46:38 77.58,-148.65 59.46 2.69 37
4 07/28/2021 21:36:41 -77.62, 18.87 120.51 07/28/2021 21:37:18 -77.64, 18.94 120.50 3.21 37
5 07/31/2021 16:21:30 77.58, -82.19 60.12 07/31/2021 16:20:59 77.58, -82.31 60.14 2.92 31
6 07/31/2021 17:10:57 -77.64, 85.22 119.80 07/31/2021 17:11:39 -77.64, 85.29 119.82 1.81 42
7 08/03/2021 11:55:46 77.62, -15.89 60.88 08/03/2021 11:55:19 77.62, -15.80 60.89 2.34 27
8 08/03/2021 12:45:12 -77.62, 151.72 119.11 08/03/2021 12:46:00 -77.64, 151.63 119.09 3.33 48
9 08/06/2021 07:30:00 77.61, 50.56 61.63 08/06/2021 07:29:39 77.61, 50.51 61.64 1.20 21



Historial Predications of SNOs between AQUA and METOP-A
